Time,TemperatureF,DewpointF,PressureIn,WindDirection,WindDirectionDegrees,WindSpeedMPH,WindSpeedGustMPH,Humidity,HourlyPrecipIn,Conditions,Clouds,dailyrainin,SoftwareType,DateUTC
2013-04-20 00:14:00,45.3,-49.8,29.93,WSW,247,0.0,-999.0,1,-99.99,,,0.00,Acu-Link.com,2013-04-20 05:14:00,
2013-04-20 00:29:00,44.8,-50.1,29.94,West,270,0.0,-999.0,1,-99.99,,,0.00,Acu-Link.com,2013-04-20 05:29:00,
2013-04-20 00:45:00,44.1,-50.6,29.94,West,270,0.0,-999.0,1,-99.99,,,0.00,Acu-Link.com,2013-04-20 05:45:00,
2013-04-20 01:00:00,43.3,-51.1,29.95,West,270,0.0,-999.0,1,-99.99,,,0.00,Acu-Link.com,2013-04-20 06:00:00,
2013-04-20 01:15:00,43.2,-51.1,29.95,West,270,0.0,-999.0,1,-99.99,,,0.00,Acu-Link.com,2013-04-20 06:15:00,
2013-04-20 01:31:00,43.2,-51.1,29.95,WNW,292,0.0,-999.0,1,-99.99,,,0.00,Acu-Link.com,2013-04-20 06:31:00,
2013-04-20 01:46:00,42.8,-51.4,29.94,West,270,0.0,-999.0,1,-99.99,,,0.00,Acu-Link.com,2013-04-20 06:46:00,
2013-04-20 02:01:00,42.8,-51.4,29.94,WNW,292,1.1,-999.0,1,-99.99,,,0.00,Acu-Link.com,2013-04-20 07:01:00,
2013-04-20 02:16:00,43.2,-51.1,29.94,NNW,337,0.0,-999.0,1,-99.99,,,0.00,Acu-Link.com,2013-04-20 07:16:00,
2013-04-20 02:32:00,43.9,-50.7,29.94,ESE,112,0.0,-999.0,1,-99.99,,,0.00,Acu-Link.com,2013-04-20 07:32:00,
2013-04-20 02:47:00,43.3,-51.1,29.94,SSE,157,0.0,-999.0,1,-99.99,,,0.00,Acu-Link.com,2013-04-20 07:47:00,
2013-04-20 03:02:00,42.6,-51.5,29.94,West,270,0.0,-999.0,1,-99.99,,,0.00,Acu-Link.com,2013-04-20 08:02:00,
2013-04-20 03:18:00,42.3,-51.7,29.94,West,270,0.0,-999.0,1,-99.99,,,0.00,Acu-Link.com,2013-04-20 08:18:00,
2013-04-20 03:33:00,41.9,-51.9,29.93,West,270,0.0,-999.0,1,-99.99,,,0.00,Acu-Link.com,2013-04-20 08:33:00,
2013-04-20 03:48:00,41.9,-51.9,29.94,South,180,0.0,-999.0,1,-99.99,,,0.00,Acu-Link.com,2013-04-20 08:48:00,
2013-04-20 04:04:00,43.2,34.4,29.94,South,180,0.0,-999.0,71,-99.99,,,0.00,Acu-Link.com,2013-04-20 09:04:00,
2013-04-20 04:19:00,41.9,-51.9,29.93,NNW,337,0.0,-999.0,1,-99.99,,,0.00,Acu-Link.com,2013-04-20 09:19:00,
2013-04-20 04:34:00,41.4,-52.2,29.94,SSE,157,0.0,-999.0,1,-99.99,,,0.00,Acu-Link.com,2013-04-20 09:34:00,
2013-04-20 04:49:00,41.4,-52.2,29.94,SSE,157,0.0,-999.0,1,-99.99,,,0.00,Acu-Link.com,2013-04-20 09:49:00,
2013-04-20 05:04:00,40.6,-52.7,29.94,South,180,1.7,-999.0,1,-99.99,,,0.00,Acu-Link.com,2013-04-20 10:04:00,
2013-04-20 05:20:00,41.5,-52.2,29.94,NNW,337,0.0,-999.0,1,-99.99,,,0.00,Acu-Link.com,2013-04-20 10:20:00,
2013-04-20 05:35:00,41.0,40.5,29.94,SSE,157,1.7,-999.0,98,-99.99,,,0.00,Acu-Link.com,2013-04-20 10:35:00,
2013-04-20 05:50:00,40.8,-15.9,29.94,South,180,0.0,-999.0,8,-99.99,,,0.00,Acu-Link.com,2013-04-20 10:50:00,
2013-04-20 06:06:00,40.5,-52.8,29.94,WNW,292,0.0,-999.0,1,-99.99,,,0.00,Acu-Link.com,2013-04-20 11:06:00,
2013-04-20 06:21:00,40.1,-53.0,29.95,NNW,337,0.0,-999.0,1,-99.99,,,0.00,Acu-Link.com,2013-04-20 11:21:00,
2013-04-20 06:36:00,40.5,-52.8,29.95,South,180,0.0,-999.0,1,-99.99,,,0.00,Acu-Link.com,2013-04-20 11:36:00,
2013-04-20 06:52:00,40.1,-53.0,29.96,NNW,337,0.0,-999.0,1,-99.99,,,0.00,Acu-Link.com,2013-04-20 11:52:00,
2013-04-20 07:07:00,41.7,-52.1,29.97,NNW,337,0.0,-999.0,1,-99.99,,,0.00,Acu-Link.com,2013-04-20 12:07:00,
2013-04-20 07:22:00,45.9,-49.5,29.97,NNW,337,0.0,-999.0,1,-99.99,,,0.00,Acu-Link.com,2013-04-20 12:22:00,
2013-04-20 07:37:00,50.7,-46.5,29.98,NNW,337,0.0,-999.0,1,-99.99,,,0.00,Acu-Link.com,2013-04-20 12:37:00,
2013-04-20 07:52:00,53.4,-44.9,29.99,WSW,247,0.0,-999.0,1,-99.99,,,0.00,Acu-Link.com,2013-04-20 12:52:00,
2013-04-20 08:07:00,57.7,-42.3,29.99,East,90,2.7,-999.0,1,-99.99,,,0.00,Acu-Link.com,2013-04-20 13:07:00,
2013-04-20 08:23:00,59.2,-41.3,30.00,NE,45,3.2,-999.0,1,-99.99,,,0.00,Acu-Link.com,2013-04-20 13:23:00,
2013-04-20 08:38:00,60.6,-40.5,29.99,ENE,67,4.7,-999.0,1,-99.99,,,0.00,Acu-Link.com,2013-04-20 13:38:00,
2013-04-20 08:53:00,60.4,-40.6,30.00,NNE,22,5.8,-999.0,1,-99.99,,,0.00,Acu-Link.com,2013-04-20 13:53:00,
2013-04-20 09:08:00,61.9,-39.7,30.00,NE,45,3.2,-999.0,1,-99.99,,,0.00,Acu-Link.com,2013-04-20 14:08:00,
2013-04-20 09:23:00,63.0,-39.0,29.99,NNW,337,6.3,-999.0,1,-99.99,,,0.00,Acu-Link.com,2013-04-20 14:23:00,
2013-04-20 09:39:00,63.3,-38.9,30.00,NNE,22,6.3,-999.0,1,-99.99,,,0.00,Acu-Link.com,2013-04-20 14:39:00,
2013-04-20 09:54:00,66.0,-37.2,30.00,NE,45,5.3,-999.0,1,-99.99,,,0.00,Acu-Link.com,2013-04-20 14:54:00,
2013-04-20 10:09:00,66.0,-37.2,30.00,NNE,22,3.2,-999.0,1,-99.99,,,0.00,Acu-Link.com,2013-04-20 15:09:00,
2013-04-20 10:24:00,65.1,-37.8,30.00,NE,45,8.3,-999.0,1,-99.99,,,0.00,Acu-Link.com,2013-04-20 15:24:00,
2013-04-20 10:39:00,66.2,-37.1,30.00,East,90,9.4,-999.0,1,-99.99,,,0.00,Acu-Link.com,2013-04-20 15:39:00,
2013-04-20 10:55:00,66.6,-36.9,29.99,SSE,157,6.3,-999.0,1,-99.99,,,0.00,Acu-Link.com,2013-04-20 15:55:00,
2013-04-20 11:10:00,66.6,-36.9,30.00,ESE,112,6.8,-999.0,1,-99.99,,,0.00,Acu-Link.com,2013-04-20 16:10:00,
2013-04-20 11:25:00,66.0,-37.2,30.00,ESE,112,10.9,-999.0,1,-99.99,,,0.00,Acu-Link.com,2013-04-20 16:25:00,
2013-04-20 11:40:00,67.6,-36.3,29.99,ENE,67,5.3,-999.0,1,-99.99,,,0.00,Acu-Link.com,2013-04-20 16:40:00,
2013-04-20 11:55:00,68.2,-35.9,29.97,ESE,112,5.8,-999.0,1,-99.99,,,0.00,Acu-Link.com,2013-04-20 16:55:00,
2013-04-20 12:10:00,67.8,-36.1,29.97,East,90,7.8,-999.0,1,-99.99,,,0.00,Acu-Link.com,2013-04-20 17:10:00,
2013-04-20 12:25:00,69.8,-34.9,29.96,East,90,4.7,-999.0,1,-99.99,,,0.00,Acu-Link.com,2013-04-20 17:25:00,
2013-04-20 12:41:00,68.9,-35.5,29.96,East,90,9.9,-999.0,1,-99.99,,,0.00,Acu-Link.com,2013-04-20 17:41:00,
2013-04-20 12:56:00,69.3,-35.2,29.95,ESE,112,7.3,-999.0,1,-99.99,,,0.00,Acu-Link.com,2013-04-20 17:56:00,
2013-04-20 13:11:00,71.2,-34.1,29.94,SSE,157,8.9,-999.0,1,-99.99,,,0.00,Acu-Link.com,2013-04-20 18:11:00,
2013-04-20 13:26:00,70.2,-34.7,29.93,SSE,157,8.3,-999.0,1,-99.99,,,0.00,Acu-Link.com,2013-04-20 18:26:00,
2013-04-20 13:41:00,71.4,-34.0,29.92,ESE,112,5.8,-999.0,1,-99.99,,,0.00,Acu-Link.com,2013-04-20 18:41:00,
2013-04-20 13:56:00,70.7,-34.4,29.92,East,90,7.3,-999.0,1,-99.99,,,0.00,Acu-Link.com,2013-04-20 18:56:00,
2013-04-20 14:11:00,72.7,-33.2,29.91,NNW,337,6.3,-999.0,1,-99.99,,,0.00,Acu-Link.com,2013-04-20 19:11:00,
2013-04-20 14:26:00,71.2,-34.1,29.91,East,90,7.3,-999.0,1,-99.99,,,0.00,Acu-Link.com,2013-04-20 19:26:00,
2013-04-20 14:42:00,72.0,-33.6,29.90,East,90,7.3,-999.0,1,-99.99,,,0.00,Acu-Link.com,2013-04-20 19:42:00,
2013-04-20 14:57:00,71.2,-34.1,29.89,SSE,157,4.7,-999.0,1,-99.99,,,0.00,Acu-Link.com,2013-04-20 19:57:00,
2013-04-20 15:12:00,72.5,-33.3,29.88,ENE,67,10.4,-999.0,1,-99.99,,,0.00,Acu-Link.com,2013-04-20 20:12:00,
2013-04-20 15:27:00,75.2,-31.7,29.88,SE,135,4.2,-999.0,1,-99.99,,,0.00,Acu-Link.com,2013-04-20 20:27:00,
2013-04-20 15:43:00,72.1,-33.6,29.87,NE,45,7.8,-999.0,1,-99.99,,,0.00,Acu-Link.com,2013-04-20 20:43:00,
2013-04-20 15:58:00,73.9,-32.5,29.86,East,90,3.7,-999.0,1,-99.99,,,0.00,Acu-Link.com,2013-04-20 20:58:00,
2013-04-20 16:13:00,75.7,-31.4,29.85,NE,45,7.3,-999.0,1,-99.99,,,0.00,Acu-Link.com,2013-04-20 21:13:00,
2013-04-20 16:28:00,73.2,-32.9,29.85,ESE,112,3.7,-999.0,1,-99.99,,,0.00,Acu-Link.com,2013-04-20 21:28:00,
2013-04-20 16:43:00,76.5,-30.9,29.84,ENE,67,3.2,-999.0,1,-99.99,,,0.00,Acu-Link.com,2013-04-20 21:43:00,
2013-04-20 16:59:00,75.2,-31.7,29.84,North,0,2.7,-999.0,1,-99.99,,,0.00,Acu-Link.com,2013-04-20 21:59:00,
2013-04-20 17:14:00,73.4,-32.8,29.83,ESE,112,6.8,-999.0,1,-99.99,,,0.00,Acu-Link.com,2013-04-20 22:14:00,
2013-04-20 17:29:00,72.1,-33.6,29.83,NNW,337,3.7,-999.0,1,-99.99,,,0.00,Acu-Link.com,2013-04-20 22:29:00,
2013-04-20 17:44:00,71.6,-33.9,29.82,East,90,2.2,-999.0,1,-99.99,,,0.00,Acu-Link.com,2013-04-20 22:44:00,
2013-04-20 17:59:00,70.5,-34.5,29.82,East,90,5.3,-999.0,1,-99.99,,,0.00,Acu-Link.com,2013-04-20 22:59:00,
2013-04-20 18:15:00,69.1,-35.4,29.82,ENE,67,5.3,-999.0,1,-99.99,,,0.00,Acu-Link.com,2013-04-20 23:15:00,
2013-04-20 18:30:00,68.0,-36.0,29.82,ENE,67,4.7,-999.0,1,-99.99,,,0.00,Acu-Link.com,2013-04-20 23:30:00,
2013-04-20 18:45:00,67.6,-36.3,29.82,SSE,157,3.7,-999.0,1,-99.99,,,0.00,Acu-Link.com,2013-04-20 23:45:00,
2013-04-20 19:00:00,67.5,-36.3,29.81,ESE,112,2.2,-999.0,1,-99.99,,,0.00,Acu-Link.com,2013-04-21 00:00:00,
2013-04-20 19:15:00,66.2,-37.1,29.81,West,270,0.0,-999.0,1,-99.99,,,0.00,Acu-Link.com,2013-04-21 00:15:00,
2013-04-20 19:30:00,63.5,-38.7,29.82,West,270,0.0,-999.0,1,-99.99,,,0.00,Acu-Link.com,2013-04-21 00:30:00,
2013-04-20 19:46:00,60.8,-40.4,29.83,South,180,0.0,-999.0,1,-99.99,,,0.00,Acu-Link.com,2013-04-21 00:46:00,
2013-04-20 20:01:00,59.0,-41.5,29.83,SSW,202,0.0,-999.0,1,-99.99,,,0.00,Acu-Link.com,2013-04-21 01:01:00,
2013-04-20 20:16:00,57.6,-42.3,29.84,WSW,247,0.0,-999.0,1,-99.99,,,0.00,Acu-Link.com,2013-04-21 01:16:00,
2013-04-20 20:31:00,56.5,-43.0,29.85,WSW,247,0.0,-999.0,1,-99.99,,,0.00,Acu-Link.com,2013-04-21 01:31:00,
2013-04-20 20:47:00,55.4,-43.7,29.86,WSW,247,0.0,-999.0,1,-99.99,,,0.00,Acu-Link.com,2013-04-21 01:47:00,
2013-04-20 21:02:00,54.7,-44.1,29.86,WSW,247,0.0,-999.0,1,-99.99,,,0.00,Acu-Link.com,2013-04-21 02:02:00,
2013-04-20 21:17:00,53.8,-44.6,29.87,WSW,247,0.0,-999.0,1,-99.99,,,0.00,Acu-Link.com,2013-04-21 02:17:00,
2013-04-20 21:33:00,54.1,-44.4,29.88,West,270,0.0,-999.0,1,-99.99,,,0.00,Acu-Link.com,2013-04-21 02:33:00,
2013-04-20 21:48:00,54.1,-44.4,29.88,West,270,0.0,-999.0,1,-99.99,,,0.00,Acu-Link.com,2013-04-21 02:48:00,
2013-04-20 22:03:00,52.5,-45.4,29.88,West,270,0.0,-999.0,1,-99.99,,,0.00,Acu-Link.com,2013-04-21 03:03:00,
2013-04-20 22:18:00,51.8,-45.8,29.89,West,270,0.0,-999.0,1,-99.99,,,0.00,Acu-Link.com,2013-04-21 03:18:00,
2013-04-20 22:33:00,52.7,-45.3,29.89,West,270,0.0,-999.0,1,-99.99,,,0.00,Acu-Link.com,2013-04-21 03:33:00,
2013-04-20 22:49:00,51.6,-46.0,29.89,West,270,0.0,-999.0,1,-99.99,,,0.00,Acu-Link.com,2013-04-21 03:49:00,
2013-04-20 23:04:00,51.1,-46.3,29.89,SW,225,0.0,-999.0,1,-99.99,,,0.00,Acu-Link.com,2013-04-21 04:04:00,
2013-04-20 23:19:00,51.1,-46.3,29.89,SW,225,0.0,-999.0,1,-99.99,,,0.00,Acu-Link.com,2013-04-21 04:19:00,
2013-04-20 23:35:00,50.5,-46.6,29.89,ENE,67,0.0,-999.0,1,-99.99,,,0.00,Acu-Link.com,2013-04-21 04:35:00,
2013-04-20 23:50:00,50.2,-46.8,29.89,West,270,0.0,-999.0,1,-99.99,,,0.00,Acu-Link.com,2013-04-21 04:50:00,